Time,TemperatureF,DewpointF,PressureIn,WindDirection,WindDirectionDegrees,WindSpeedMPH,WindSpeedGustMPH,Humidity,HourlyPrecipIn,Conditions,Clouds,dailyrainin,SoftwareType,DateUTC
2013-04-13 00:02:00,42.8,41.0,29.68,North,352,0.0,2.0,94,0.00,,,0.00,weatherlink.com 1.10,2013-04-13 04:02:00,
2013-04-13 00:17:00,42.8,41.0,29.68,NNW,342,1.0,2.0,94,0.00,,,0.00,weatherlink.com 1.10,2013-04-13 04:17:00,
2013-04-13 00:32:00,42.8,41.0,29.69,West,271,0.0,0.0,94,0.00,,,0.00,weatherlink.com 1.10,2013-04-13 04:32:00,
2013-04-13 00:47:00,42.8,41.0,29.70,West,271,1.0,3.0,94,0.00,,,0.00,weatherlink.com 1.10,2013-04-13 04:47:00,
2013-04-13 01:02:00,42.8,41.0,29.69,West,273,2.0,4.0,94,0.00,,,0.00,weatherlink.com 1.10,2013-04-13 05:02:00,
2013-04-13 01:17:00,42.8,41.0,29.71,West,263,2.0,4.0,93,0.00,,,0.00,weatherlink.com 1.10,2013-04-13 05:17:00,
2013-04-13 01:32:00,42.8,41.0,29.71,West,271,1.0,2.0,94,0.00,,,0.00,weatherlink.com 1.10,2013-04-13 05:32:00,
2013-04-13 02:02:00,42.4,41.0,29.72,NW,315,2.0,4.0,93,0.00,,,0.00,weatherlink.com 1.10,2013-04-13 06:02:00,
2013-04-13 02:17:00,42.3,41.0,29.73,WNW,284,3.0,10.0,93,0.00,,,0.00,weatherlink.com 1.10,2013-04-13 06:17:00,
2013-04-13 02:32:00,42.0,40.0,29.73,West,277,1.0,6.0,92,0.00,,,0.00,weatherlink.com 1.10,2013-04-13 06:32:00,
2013-04-13 02:47:00,41.9,40.0,29.73,WNW,287,1.0,9.0,92,0.00,,,0.00,weatherlink.com 1.10,2013-04-13 06:47:00,
2013-04-13 03:02:00,41.9,40.0,29.74,WNW,287,2.0,3.0,92,0.00,,,0.00,weatherlink.com 1.10,2013-04-13 07:02:00,
2013-04-13 03:17:00,41.9,40.0,29.74,West,274,0.0,3.0,92,0.00,,,0.00,weatherlink.com 1.10,2013-04-13 07:17:00,
2013-04-13 03:32:00,40.9,39.0,29.74,WNW,283,0.0,0.0,91,0.00,,,0.00,weatherlink.com 1.10,2013-04-13 07:32:00,
2013-04-13 03:47:00,-999.0,-99.9,29.74,North,-999,-999.0,-999.0,-999,0.00,,,0.00,weatherlink.com 1.10,2013-04-13 07:47:00,
2013-04-13 04:02:00,-999.0,-99.9,29.74,North,-999,-999.0,-999.0,-999,0.00,,,0.00,weatherlink.com 1.10,2013-04-13 08:02:00,
2013-04-13 04:17:00,-999.0,-99.9,29.75,North,-999,-999.0,-999.0,-999,0.00,,,0.00,weatherlink.com 1.10,2013-04-13 08:17:00,
2013-04-13 04:32:00,-999.0,-99.9,29.76,North,-999,-999.0,-999.0,-999,0.00,,,0.00,weatherlink.com 1.10,2013-04-13 08:32:00,
2013-04-13 04:47:00,-999.0,-99.9,29.76,North,-999,-999.0,-999.0,-999,0.00,,,0.00,weatherlink.com 1.10,2013-04-13 08:47:00,
2013-04-13 05:02:00,-999.0,-99.9,29.77,North,-999,-999.0,-999.0,-999,0.00,,,0.00,weatherlink.com 1.10,2013-04-13 09:02:00,
2013-04-13 05:17:00,-999.0,-99.9,29.77,North,-999,-999.0,-999.0,-999,0.00,,,0.00,weatherlink.com 1.10,2013-04-13 09:17:00,
2013-04-13 05:32:00,-999.0,-99.9,29.78,North,-999,-999.0,-999.0,-999,0.00,,,0.00,weatherlink.com 1.10,2013-04-13 09:32:00,
2013-04-13 06:03:00,-999.0,-99.9,29.78,North,-999,-999.0,-999.0,-999,0.00,,,0.00,weatherlink.com 1.10,2013-04-13 10:03:00,
2013-04-13 06:18:00,-999.0,-99.9,29.79,North,-999,-999.0,-999.0,-999,0.00,,,0.00,weatherlink.com 1.10,2013-04-13 10:18:00,
2013-04-13 06:33:00,-999.0,-99.9,29.79,North,-999,-999.0,-999.0,-999,0.00,,,0.00,weatherlink.com 1.10,2013-04-13 10:33:00,
2013-04-13 06:48:00,-999.0,-99.9,29.79,North,-999,-999.0,-999.0,-999,0.00,,,0.00,weatherlink.com 1.10,2013-04-13 10:48:00,
2013-04-13 07:03:00,-999.0,-99.9,29.78,North,-999,-999.0,-999.0,-999,0.00,,,0.00,weatherlink.com 1.10,2013-04-13 11:03:00,
2013-04-13 07:18:00,39.3,38.0,29.78,ENE,68,0.0,0.0,96,0.00,,,0.00,weatherlink.com 1.10,2013-04-13 11:18:00,
2013-04-13 07:33:00,41.2,40.0,29.79,ESE,115,0.0,1.0,95,0.00,,,0.00,weatherlink.com 1.10,2013-04-13 11:33:00,
2013-04-13 07:48:00,41.6,40.0,29.80,East,98,0.0,1.0,94,0.00,,,0.00,weatherlink.com 1.10,2013-04-13 11:48:00,
2013-04-13 08:03:00,43.2,42.0,29.81,ENE,61,0.0,2.0,94,0.00,,,0.00,weatherlink.com 1.10,2013-04-13 12:03:00,
2013-04-13 08:18:00,44.7,42.0,29.82,NE,43,2.0,2.0,90,0.00,,,0.00,weatherlink.com 1.10,2013-04-13 12:18:00,
2013-04-13 08:33:00,44.6,42.0,29.82,North,9,2.0,3.0,89,0.00,,,0.00,weatherlink.com 1.10,2013-04-13 12:33:00,
2013-04-13 08:48:00,46.4,43.0,29.82,ENE,70,0.0,1.0,87,0.00,,,0.00,weatherlink.com 1.10,2013-04-13 12:48:00,
2013-04-13 09:03:00,47.5,42.0,29.82,SE,131,1.0,4.0,81,0.00,,,0.00,weatherlink.com 1.10,2013-04-13 13:03:00,
2013-04-13 09:33:00,49.1,38.0,29.82,West,273,3.0,9.0,66,0.00,,,0.00,weatherlink.com 1.10,2013-04-13 13:33:00,
2013-04-13 09:48:00,49.4,37.0,29.83,West,276,5.0,11.0,62,0.00,,,0.00,weatherlink.com 1.10,2013-04-13 13:48:00,
2013-04-13 10:03:00,49.4,36.0,29.83,NW,314,6.0,12.0,60,0.00,,,0.00,weatherlink.com 1.10,2013-04-13 14:03:00,
2013-04-13 10:18:00,49.5,35.0,29.83,WNW,303,8.0,8.0,58,0.00,,,0.00,weatherlink.com 1.10,2013-04-13 14:18:00,
2013-04-13 10:34:00,49.8,35.0,29.83,NW,321,4.0,10.0,58,0.00,,,0.00,weatherlink.com 1.10,2013-04-13 14:34:00,
2013-04-13 10:49:00,51.0,34.0,29.83,SW,214,4.0,9.0,53,0.00,,,0.00,weatherlink.com 1.10,2013-04-13 14:49:00,
2013-04-13 11:04:00,51.4,35.0,29.83,NW,315,2.0,8.0,53,0.00,,,0.00,weatherlink.com 1.10,2013-04-13 15:04:00,
2013-04-13 11:19:00,52.2,35.0,29.83,West,280,6.0,8.0,53,0.00,,,0.00,weatherlink.com 1.10,2013-04-13 15:19:00,
2013-04-13 11:34:00,52.9,35.0,29.83,WNW,285,4.0,12.0,52,0.00,,,0.00,weatherlink.com 1.10,2013-04-13 15:34:00,
2013-04-13 11:49:00,52.4,35.0,29.83,SE,124,2.0,11.0,52,0.00,,,0.00,weatherlink.com 1.10,2013-04-13 15:49:00,
2013-04-13 12:04:00,52.4,34.0,29.82,WNW,293,7.0,7.0,50,0.00,,,0.00,weatherlink.com 1.10,2013-04-13 16:04:00,
2013-04-13 12:34:00,53.0,35.0,29.82,South,173,2.0,6.0,50,0.00,,,0.00,weatherlink.com 1.10,2013-04-13 16:34:00,
2013-04-13 12:49:00,55.3,36.0,29.81,SSW,211,3.0,8.0,48,0.00,,,0.00,weatherlink.com 1.10,2013-04-13 16:49:00,
2013-04-13 13:04:00,55.4,36.0,29.80,NW,310,4.0,7.0,49,0.00,,,0.00,weatherlink.com 1.10,2013-04-13 17:04:00,
2013-04-13 13:19:00,56.2,37.0,29.80,South,184,4.0,9.0,49,0.00,,,0.00,weatherlink.com 1.10,2013-04-13 17:19:00,
2013-04-13 13:34:00,55.7,35.0,29.80,West,262,1.0,10.0,46,0.00,,,0.00,weatherlink.com 1.10,2013-04-13 17:34:00,
2013-04-13 13:49:00,56.3,37.0,29.80,ESE,120,1.0,11.0,48,0.00,,,0.00,weatherlink.com 1.10,2013-04-13 17:49:00,
2013-04-13 14:04:00,56.9,37.0,29.79,SSW,195,7.0,11.0,47,0.00,,,0.00,weatherlink.com 1.10,2013-04-13 18:04:00,
2013-04-13 14:19:00,58.0,37.0,29.79,SSW,193,3.0,11.0,46,0.00,,,0.00,weatherlink.com 1.10,2013-04-13 18:19:00,
2013-04-13 14:34:00,56.8,36.0,29.79,NW,305,4.0,10.0,46,0.00,,,0.00,weatherlink.com 1.10,2013-04-13 18:34:00,
2013-04-13 14:49:00,58.0,37.0,29.79,SE,143,3.0,9.0,45,0.00,,,0.00,weatherlink.com 1.10,2013-04-13 18:49:00,
2013-04-13 15:04:00,58.0,37.0,29.79,WSW,243,0.0,12.0,45,0.00,,,0.00,weatherlink.com 1.10,2013-04-13 19:04:00,
2013-04-13 15:19:00,56.7,36.0,29.79,SSE,155,4.0,12.0,46,0.00,,,0.00,weatherlink.com 1.10,2013-04-13 19:19:00,
2013-04-13 15:34:00,56.5,36.0,29.79,South,183,3.0,13.0,47,0.00,,,0.00,weatherlink.com 1.10,2013-04-13 19:34:00,
2013-04-13 15:49:00,56.5,36.0,29.79,SSE,147,3.0,10.0,47,0.00,,,0.00,weatherlink.com 1.10,2013-04-13 19:49:00,
2013-04-13 16:04:00,56.5,37.0,29.78,WNW,283,3.0,11.0,48,0.00,,,0.00,weatherlink.com 1.10,2013-04-13 20:04:00,
2013-04-13 16:19:00,56.7,36.0,29.78,SW,233,1.0,12.0,47,0.00,,,0.00,weatherlink.com 1.10,2013-04-13 20:19:00,
2013-04-13 16:34:00,57.0,37.0,29.79,SW,231,1.0,11.0,47,0.00,,,0.00,weatherlink.com 1.10,2013-04-13 20:34:00,
2013-04-13 16:49:00,57.0,36.0,29.79,WSW,256,3.0,11.0,45,0.00,,,0.00,weatherlink.com 1.10,2013-04-13 20:49:00,
2013-04-13 17:04:00,57.1,36.0,29.80,SW,218,3.0,8.0,45,0.00,,,0.00,weatherlink.com 1.10,2013-04-13 21:04:00,
2013-04-13 17:19:00,57.0,35.0,29.80,WNW,293,4.0,11.0,44,0.00,,,0.00,weatherlink.com 1.10,2013-04-13 21:19:00,
2013-04-13 17:34:00,57.1,35.0,29.79,WSW,257,3.0,8.0,44,0.00,,,0.00,weatherlink.com 1.10,2013-04-13 21:34:00,
2013-04-13 17:49:00,57.3,35.0,29.79,SW,217,1.0,8.0,44,0.00,,,0.00,weatherlink.com 1.10,2013-04-13 21:49:00,
2013-04-13 18:05:00,56.8,35.0,29.81,SSW,193,3.0,10.0,45,0.00,,,0.00,weatherlink.com 1.10,2013-04-13 22:05:00,
2013-04-13 18:19:00,56.0,35.0,29.82,West,263,2.0,8.0,46,0.00,,,0.00,weatherlink.com 1.10,2013-04-13 22:19:00,
2013-04-13 18:34:00,56.1,35.0,29.82,SW,233,2.0,5.0,46,0.00,,,0.00,weatherlink.com 1.10,2013-04-13 22:34:00,
2013-04-13 18:49:00,55.3,35.0,29.82,SSW,201,1.0,7.0,47,0.00,,,0.00,weatherlink.com 1.10,2013-04-13 22:49:00,
2013-04-13 19:04:00,54.6,36.0,29.82,West,271,1.0,3.0,49,0.00,,,0.00,weatherlink.com 1.10,2013-04-13 23:04:00,
2013-04-13 19:19:00,54.1,35.0,29.82,West,273,1.0,3.0,49,0.00,,,0.00,weatherlink.com 1.10,2013-04-13 23:19:00,
2013-04-13 19:34:00,53.2,35.0,29.82,West,262,1.0,1.0,51,0.00,,,0.00,weatherlink.com 1.10,2013-04-13 23:34:00,
2013-04-13 19:49:00,52.3,36.0,29.83,WNW,293,1.0,2.0,54,0.00,,,0.00,weatherlink.com 1.10,2013-04-13 23:49:00,
2013-04-13 20:05:00,50.8,39.0,29.83,NW,315,1.0,1.0,65,0.00,,,0.00,weatherlink.com 1.10,2013-04-14 00:05:00,
2013-04-13 20:20:00,48.3,38.0,29.84,NW,315,1.0,1.0,68,0.00,,,0.00,weatherlink.com 1.10,2013-04-14 00:20:00,
2013-04-13 20:35:00,46.3,37.0,29.84,NW,315,1.0,1.0,70,0.00,,,0.00,weatherlink.com 1.10,2013-04-14 00:35:00,
2013-04-13 20:50:00,45.3,37.0,29.85,NW,315,0.0,1.0,73,0.00,,,0.00,weatherlink.com 1.10,2013-04-14 00:50:00,
2013-04-13 21:05:00,43.7,37.0,29.85,NW,315,0.0,1.0,78,0.00,,,0.00,weatherlink.com 1.10,2013-04-14 01:05:00,
2013-04-13 21:20:00,42.8,37.0,29.86,WNW,302,1.0,1.0,81,0.00,,,0.00,weatherlink.com 1.10,2013-04-14 01:20:00,
2013-04-13 21:35:00,43.5,37.0,29.87,WNW,297,0.0,1.0,77,0.00,,,0.00,weatherlink.com 1.10,2013-04-14 01:35:00,
2013-04-13 21:50:00,42.9,37.0,29.88,WNW,301,0.0,1.0,80,0.00,,,0.00,weatherlink.com 1.10,2013-04-14 01:50:00,
2013-04-13 22:05:00,42.9,38.0,29.88,WNW,301,0.0,1.0,83,0.00,,,0.00,weatherlink.com 1.10,2013-04-14 02:05:00,
2013-04-13 22:20:00,43.6,38.0,29.89,WNW,301,0.0,0.0,82,0.00,,,0.00,weatherlink.com 1.10,2013-04-14 02:20:00,
2013-04-13 22:35:00,44.8,39.0,29.89,WNW,301,0.0,0.0,81,0.00,,,0.00,weatherlink.com 1.10,2013-04-14 02:35:00,
2013-04-13 22:50:00,45.5,40.0,29.89,WNW,303,0.0,0.0,81,0.00,,,0.00,weatherlink.com 1.10,2013-04-14 02:50:00,
2013-04-13 23:05:00,45.5,41.0,29.90,NW,304,0.0,0.0,83,0.00,,,0.00,weatherlink.com 1.10,2013-04-14 03:05:00,
2013-04-13 23:20:00,45.2,41.0,29.89,WNW,303,0.0,0.0,84,0.00,,,0.00,weatherlink.com 1.10,2013-04-14 03:20:00,
2013-04-13 23:35:00,45.5,41.0,29.90,NW,304,0.0,0.0,84,0.00,,,0.00,weatherlink.com 1.10,2013-04-14 03:35:00,
2013-04-13 23:50:00,45.4,41.0,29.90,NNW,330,0.0,0.0,84,0.00,,,0.00,weatherlink.com 1.10,2013-04-14 03:50:00,